Regional Weather Roundup
Issued by NWS Jackson, KY

Home | Current Version | Previous Version | Text Only | Print | Product List | Glossary Off
Versions: 1 2 3 4 5 6 7 8 9 10 11 12 13 14 15 16 17 18 19 20 21 22 23 24 25 26 27 28 29 30 31 32 33 34 35 36 37 38 39 40 41 42 43 44 45 46 47 48 49 50

000
ASUS43 KJKL 282319
RWRJKL

EAST KENTUCKY HOURLY WEATHER ROUNDUP
NATIONAL WEATHER SERVICE JACKSON KY
600 PM EST FRI NOV 28 2014

NOTE: "FAIR" INDICATES FEW OR NO CLOUDS BELOW 12,000 FEET WITH
NO SIGNIFICANT WEATHER AND/OR OBSTRUCTIONS TO VISIBILITY.

* THESE REPORTS ARE NOT UNDER NWS QUALITY CONTROL AND MAY NOT
  REPORT WEATHER SUCH AS PRECIPITATION AND FOG.

KYZ079-080-083-085-087-088-110-112-115-119-120-290000
...EASTERN KENTUCKY...

CITY           SKY/WX    TMP DP  RH WIND       PRES   REMARKS
JACKSON        PTCLDY    32  16  51 S3        30.22F
LONDON         CLEAR     36  17  46 CALM      30.22F
SOMERSET*      CLEAR     36  14  41 CALM      30.23F
MONTICELLO*    CLEAR     38  19  46 SE5       30.24F WCI  34
HARLAN APT*    CLEAR     34  14  44 E3        30.24S
HAZARD APT*    CLEAR     34  19  55 SE3       30.22F
BLACK MTN*       N/A     23  18  80 SW13        N/A  WCI  11
PIKEVILLE APT* CLEAR     32  18  55 SE3       30.22F
BIG SANDY*     CLEAR     34  19  55 S3        30.23F
MOREHEAD APT*  PTCLDY    32  16  51 S6        30.24F WCI  26
ASHLAND*       CLEAR     32  18  55 SE6       30.23F WCI  26
$$

KYZ035-036-041-042-044-050-067-078-099-290000
...CENTRAL KENTUCKY...

CITY           SKY/WX    TMP DP  RH WIND       PRES   REMARKS
MT STERLING*   PTCLDY    32  19  59 S6        30.23F WCI  26
FLEMING/MASON* PTCLDY    32  19  59 S5        30.23F WCI  27
DANVILLE*      CLEAR     32  19  59 S6        30.22S WCI  26
RICHMOND*      CLEAR     34  18  51 SE3       30.21F
LEXINGTON      CLEAR     32  18  56 SE7       30.21F WCI  26
FRANKFORT      CLEAR     34  18  52 SE8       30.19F WCI  27
$$

KYZ091>093-OHZ055-061-077-WVZ005-015-034-035-042-290000
...SOUTHERN OHIO/WEST VIRGINIA...

CITY           SKY/WX    TMP DP  RH WIND       PRES   REMARKS
COVINGTON      MOCLDY    32  15  49 SE12      30.17F WCI  23
COLUMBUS       MOCLDY    31  17  56 SE6       30.21F WCI  25
DAYTON         CLOUDY    33  18  53 S12       30.16F WCI  24
WILMINGTON     MOCLDY    30  19  63 S9        30.18F WCI  22
HUNTINGTON     PTCLDY    31  18  58 CALM      30.24F
CHARLESTON     MOCLDY    30  20  66 CALM      30.26F
PINEVILLE*     PTCLDY    28  26  94 MISG      30.29F
BECKLEY        CLEAR     25  17  72 SW7       30.19S WCI  17
BLUEFIELD      CLEAR     27  16  63 CALM      30.20R
$$

VAZ002-007-008-TNZ017-027-036-066-071-290000
...SOUTHWEST VIRGINIA/EAST TENNESSEE...

CITY           SKY/WX    TMP DP  RH WIND       PRES   REMARKS
WISE*          CLEAR     32  19  59 S6        30.21S WCI  26
JONESVILLE*    CLEAR     34  19  55 CALM      30.28S
ABINGDON*      CLOUDY    34  21  59 CALM      30.25R
BRISTOL        PTCLDY    33  21  61 CALM      30.27S
KNOXVILLE      CLEAR     39  20  46 CALM      30.27F
OAK RIDGE      CLEAR     38  19  46 CALM      30.29S
CROSSVILLE     CLEAR     38  18  44 S5        30.22S WCI  34
NASHVILLE      PTCLDY    42  22  44 S7        30.22S
$$

...KEY TO REMARKS...
VSB - VISIBILITY IN MILES
WCI - WIND CHILL INDEX
HX  - HEAT INDEX

$$


USA.gov is the U.S. government's official web portal to all federal, state and local government web resources and services.